Change the Weather History Date:

Wednesday, July 24, 2013

  Actual Average Record
Temperature  
Mean Temperature 61 °F 69 °F  
Max Temperature 71 °F 80 °F 101 °F (1941)
Min Temperature 50 °F 58 °F 42 °F (1906)
Degree Days  
Heating Degree Days 4 1  
Month to date heating degree days 13 25  
Since 1 June heating degree days 115 137  
Since 1 July heating degree days 13 25  
Cooling Degree Days 0 5  
Month to date cooling degree days 198 120  
Year to date cooling degree days 327 221  
Since 1 June cooling degree days 285 201  
Growing Degree Days 10 (Base 50)    
Moisture  
Dew Point 47 °F    
Average Humidity 69    
Maximum Humidity 93    
Minimum Humidity 44    
Precipitation  
Precipitation 0.00 in 0.10 in 1.07 in (1949)
Month to date precipitation 2.24 2.31  
Year to date precipitation 16.00 17.02  
Sea Level Pressure  
Sea Level Pressure 30.03 in    
Wind  
Wind Speed 4 mph (NE)    
Max Wind Speed 12 mph    
Max Gust Speed 16 mph    
Visibility 10 miles    
Events      
T = Trace of Precipitation, MM = Missing Value Source: NWS Daily Summary

Daily Weather History Graph

Daily Weather History Graph

Search for Another Location

Airport or City:

Trip Planner

Search our weather history database for the weather conditions in past years. The results will help you decide how hot, cold, wet, or windy it might be!

Date:

Astronomy

Jul. 24, 2013 Rise Set
Actual Time 6:19 AM EDT 9:17 PM EDT
Civil Twilight 5:45 AM EDT 9:51 PM EDT
Nautical Twilight 5:01 AM EDT 10:35 PM EDT
Astronomical Twilight 4:08 AM EDT 11:27 PM EDT
Moon 10:12 PM EDT (7/24) 8:47 AM EDT (7/24)
Length of Visible Light 16h 06m
Length of Day
14h 57m
Waning Gibbous, 95% of the Moon is Illuminated
Jul 24
Waning Gibbous
Jul 29
Last Quarter
Aug 6
New
Aug 14
First Quarter
Aug 20
Full

Hourly Weather History & Observations

Time (EDT) Temp. Dew Point Humidity Pressure Visibility Wind Dir Wind Speed Gust Speed Precip Events Conditions
12:53 AM 61.0 °F 46.9 °F 60% 29.96 in 10.0 mi North 6.9 mph - N/A   Clear
1:53 AM 60.1 °F 48.0 °F 64% 29.97 in 10.0 mi North 6.9 mph - N/A   Clear
2:53 AM 60.1 °F 48.9 °F 67% 29.97 in 10.0 mi North 6.9 mph - N/A   Clear
3:53 AM 60.1 °F 46.9 °F 62% 29.99 in 10.0 mi ENE 8.1 mph - N/A   Scattered Clouds
4:53 AM 55.0 °F 48.0 °F 77% 30.00 in 10.0 mi ESE 3.5 mph - N/A   Partly Cloudy
5:53 AM 50.0 °F 46.9 °F 89% 30.01 in 10.0 mi Calm Calm - N/A   Clear
6:53 AM 50.0 °F 48.0 °F 93% 30.03 in 10.0 mi Calm Calm - N/A   Mostly Cloudy
7:53 AM 55.9 °F 48.9 °F 77% 30.05 in 10.0 mi Calm Calm - N/A   Mostly Cloudy
8:53 AM 59.0 °F 46.9 °F 64% 30.06 in 10.0 mi Calm Calm - N/A   Mostly Cloudy
9:53 AM 62.1 °F 41.0 °F 46% 30.07 in 10.0 mi Variable 3.5 mph - N/A   Mostly Cloudy
10:53 AM 64.0 °F 43.0 °F 46% 30.07 in 10.0 mi Variable 4.6 mph - N/A   Mostly Cloudy
11:53 AM 64.9 °F 46.0 °F 50% 30.07 in 10.0 mi NE 4.6 mph - N/A   Scattered Clouds
12:53 PM 66.9 °F 45.0 °F 45% 30.07 in 10.0 mi ENE 5.8 mph - N/A   Scattered Clouds
1:53 PM 66.9 °F 46.0 °F 47% 30.06 in 10.0 mi NE 6.9 mph - N/A   Scattered Clouds
2:53 PM 69.1 °F 46.9 °F 45% 30.05 in 10.0 mi NE 9.2 mph - N/A   Scattered Clouds
3:53 PM 69.1 °F 46.9 °F 45% 30.05 in 10.0 mi ENE 9.2 mph - N/A   Mostly Cloudy
4:53 PM 70.0 °F 46.9 °F 44% 30.04 in 10.0 mi NNE 8.1 mph - N/A   Mostly Cloudy
5:53 PM 71.1 °F 48.0 °F 44% 30.03 in 10.0 mi Variable 5.8 mph - N/A   Scattered Clouds
6:53 PM 69.1 °F 46.9 °F 45% 30.02 in 10.0 mi Variable 3.5 mph - N/A   Mostly Cloudy
7:53 PM 69.1 °F 46.9 °F 45% 30.03 in 10.0 mi North 3.5 mph - N/A   Scattered Clouds
8:53 PM 68.0 °F 48.0 °F 49% 30.03 in 10.0 mi North 4.6 mph - N/A   Scattered Clouds
9:53 PM 60.1 °F 50.0 °F 69% 30.04 in 10.0 mi Calm Calm - N/A   Scattered Clouds
10:53 PM 57.0 °F 51.1 °F 81% 30.04 in 10.0 mi Calm Calm - N/A   Clear
11:53 PM 55.9 °F 50.0 °F 80% 30.04 in 10.0 mi Calm Calm - N/A   Clear